Location: Columbus
(29.5618°N, 96.6770°W)
Time: 05:08:42
(UTC-06:00)

Iridium 59 - Visible Passes

Search period start: 26 November 2014 00:00
Search period end: 06 December 2014 00:00
Orbit: 776 x 779 km, 86.4° (Epoch: 25 November)

Date Brightness Start Highest point End Pass type
(mag) Time Alt. Az. Time Alt. Az. Time Alt. Az.
26 Nov 7.3 04:05:58 12° NE 04:09:27 21° E 04:13:19 10° SE visible
26 Nov 5.7 05:46:34 15° NNW 05:50:06 31° W 05:54:37 10° SW visible
26 Nov 8.0 18:38:36 10° WSW 18:40:43 12° W 18:42:51 10° NW visible
27 Nov 4.9 05:14:54 39° NNW 05:16:44 63° W 05:21:51 10° S visible
27 Nov 7.4 18:02:44 10° SW 18:06:58 25° W 18:11:13 10° NNW visible
28 Nov 5.3 04:42:59 63° ENE 04:43:14 64° E 04:48:23 10° S visible
29 Nov 6.8 04:10:54 28° ESE 04:10:54 28° ESE 04:14:14 10° SSE visible
29 Nov 6.4 05:51:27 19° WSW 05:51:27 19° WSW 05:53:50 10° SW visible
30 Nov 7.9 03:38:40 11° ESE 03:38:40 11° ESE 03:39:04 10° ESE visible
30 Nov 6.3 05:19:14 25° SW 05:19:14 25° SW 05:21:35 10° SSW visible
30 Nov 7.8 18:03:56 10° WSW 18:07:11 17° W 18:10:27 10° NW visible
01 Dec 6.8 04:46:54 21° S 04:46:54 21° S 04:48:31 10° S visible
02 Dec 7.6 04:14:28 12° SSE 04:14:28 12° SSE 04:14:47 10° SSE visible
03 Dec 8.2 18:06:30 10° W 18:07:26 10° WNW 18:08:22 10° WNW visible
